Year,Month,Day,Hour,Minute,Value (Times are PST for temperature in C)
2020,12,04,00,00,6.30
2020,12,04,00,01,6.30
2020,12,04,00,02,6.30
2020,12,04,00,03,6.30
2020,12,04,00,04,6.30
2020,12,04,00,05,6.30
2020,12,04,00,06,6.30
2020,12,04,00,07,6.30
2020,12,04,00,08,6.30
2020,12,04,00,09,6.30
2020,12,04,00,10,6.30
2020,12,04,00,11,6.30
2020,12,04,00,12,6.30
2020,12,04,00,13,6.30
2020,12,04,00,14,6.30
2020,12,04,00,15,6.30
2020,12,04,00,16,6.20
2020,12,04,00,17,6.20
2020,12,04,00,18,6.20
2020,12,04,00,19,6.20
2020,12,04,00,20,6.20
2020,12,04,00,21,6.20
2020,12,04,00,22,6.20
2020,12,04,00,23,6.20
2020,12,04,00,24,6.20
2020,12,04,00,25,6.20
2020,12,04,00,26,6.20
2020,12,04,00,27,6.20
2020,12,04,00,28,6.20
2020,12,04,00,29,6.20
2020,12,04,00,30,6.20
2020,12,04,00,31,6.10
2020,12,04,00,32,6.10
2020,12,04,00,33,6.10
2020,12,04,00,34,6.10
2020,12,04,00,35,6.10
2020,12,04,00,36,6.10
2020,12,04,00,37,6.10
2020,12,04,00,38,6.10
2020,12,04,00,39,6.10
2020,12,04,00,40,6.10
2020,12,04,00,41,6.10
2020,12,04,00,42,6.10
2020,12,04,00,43,6.10
2020,12,04,00,44,6.10
2020,12,04,00,45,6.10
2020,12,04,00,46,6.10
2020,12,04,00,47,6.10
2020,12,04,00,48,6.10
2020,12,04,00,49,6.10
2020,12,04,00,50,6.10
2020,12,04,00,51,6.20
2020,12,04,00,52,6.20
2020,12,04,00,53,6.20
2020,12,04,00,54,6.10
2020,12,04,00,55,6.20
2020,12,04,00,56,6.10
2020,12,04,00,57,6.10
2020,12,04,00,58,6.10
2020,12,04,00,59,6.10
2020,12,04,01,00,6.10
2020,12,04,01,01,6.10
2020,12,04,01,02,6.10
2020,12,04,01,03,6.10
2020,12,04,01,04,6.10
2020,12,04,01,05,6.10
2020,12,04,01,06,6.10
2020,12,04,01,07,6.10
2020,12,04,01,08,6.10
2020,12,04,01,09,6.10
2020,12,04,01,10,6.10
2020,12,04,01,11,6.10
2020,12,04,01,12,6.10
2020,12,04,01,13,6.10
2020,12,04,01,14,6.10
2020,12,04,01,15,6.10
2020,12,04,01,16,6.10
2020,12,04,01,17,6.10
2020,12,04,01,18,6.10
2020,12,04,01,19,6.10
2020,12,04,01,20,6.10
2020,12,04,01,21,6.10
2020,12,04,01,22,6.00
2020,12,04,01,23,6.00
2020,12,04,01,24,6.00
2020,12,04,01,25,6.00
2020,12,04,01,26,6.00
2020,12,04,01,27,6.00
2020,12,04,01,28,6.00
2020,12,04,01,29,6.00
2020,12,04,01,30,6.00
2020,12,04,01,31,6.00
2020,12,04,01,32,6.00
2020,12,04,01,33,6.00
2020,12,04,01,34,6.00
2020,12,04,01,35,6.00
2020,12,04,01,36,6.00
2020,12,04,01,37,6.00
2020,12,04,01,38,6.00
2020,12,04,01,39,6.00
2020,12,04,01,40,6.00
2020,12,04,01,41,6.00
2020,12,04,01,42,6.00
2020,12,04,01,43,6.00
2020,12,04,01,44,6.00
2020,12,04,01,45,6.00
2020,12,04,01,46,6.00
2020,12,04,01,47,6.00
2020,12,04,01,48,6.00
2020,12,04,01,49,6.00
2020,12,04,01,50,6.00
2020,12,04,01,51,6.00
2020,12,04,01,52,6.00
2020,12,04,01,53,6.10
2020,12,04,01,54,6.00
2020,12,04,01,55,6.00
2020,12,04,01,56,6.10
2020,12,04,01,57,6.10
2020,12,04,01,58,6.10
2020,12,04,01,59,6.10
2020,12,04,02,00,6.10
2020,12,04,02,01,6.10
2020,12,04,02,02,6.10
2020,12,04,02,03,6.10
2020,12,04,02,04,6.10
2020,12,04,02,05,6.10
2020,12,04,02,06,6.10
2020,12,04,02,07,6.10
2020,12,04,02,08,6.10
2020,12,04,02,09,6.10
2020,12,04,02,10,6.10
2020,12,04,02,11,6.10
2020,12,04,02,12,6.10
2020,12,04,02,13,6.10
2020,12,04,02,14,6.10
2020,12,04,02,15,6.10
2020,12,04,02,16,6.00
2020,12,04,02,17,6.10
2020,12,04,02,18,6.00
2020,12,04,02,19,6.00
2020,12,04,02,20,6.00
2020,12,04,02,21,6.00
2020,12,04,02,22,6.00
2020,12,04,02,23,6.00
2020,12,04,02,24,6.00
2020,12,04,02,25,6.00
2020,12,04,02,26,6.00
2020,12,04,02,27,6.00
2020,12,04,02,28,6.00
2020,12,04,02,29,6.00
2020,12,04,02,30,6.00
2020,12,04,02,31,6.00
2020,12,04,02,32,6.00
2020,12,04,02,33,6.00
2020,12,04,02,34,6.10
2020,12,04,02,35,6.00
2020,12,04,02,36,6.10
2020,12,04,02,37,6.10
2020,12,04,02,38,6.00
2020,12,04,02,39,6.00
2020,12,04,02,40,6.00
2020,12,04,02,41,6.00
2020,12,04,02,42,6.00
2020,12,04,02,43,6.00
2020,12,04,02,44,6.00
2020,12,04,02,45,5.90
2020,12,04,02,46,5.90
2020,12,04,02,47,5.90
2020,12,04,02,48,5.90
2020,12,04,02,49,5.90
2020,12,04,02,50,5.90
2020,12,04,02,51,5.90
2020,12,04,02,52,5.90
2020,12,04,02,53,5.90
2020,12,04,02,54,5.90
2020,12,04,02,55,5.80
2020,12,04,02,56,5.80
2020,12,04,02,57,5.80
2020,12,04,02,58,5.80
2020,12,04,02,59,5.80
2020,12,04,03,00,5.80
2020,12,04,03,01,5.80
2020,12,04,03,02,5.80
2020,12,04,03,03,5.80
2020,12,04,03,04,5.80
2020,12,04,03,05,5.80
2020,12,04,03,06,5.80
2020,12,04,03,07,5.80
2020,12,04,03,08,5.80
2020,12,04,03,09,5.80
2020,12,04,03,10,5.80
2020,12,04,03,11,5.80
2020,12,04,03,12,5.80
2020,12,04,03,13,5.80
2020,12,04,03,14,5.80
2020,12,04,03,15,5.80
2020,12,04,03,16,5.80
2020,12,04,03,17,5.80
2020,12,04,03,18,5.80
2020,12,04,03,19,5.80
2020,12,04,03,20,5.80
2020,12,04,03,21,5.80
2020,12,04,03,22,5.80
2020,12,04,03,23,5.80
2020,12,04,03,24,5.80
2020,12,04,03,25,5.80
2020,12,04,03,26,5.80
2020,12,04,03,27,5.80
2020,12,04,03,28,5.80
2020,12,04,03,29,5.80
2020,12,04,03,30,5.80
2020,12,04,03,31,5.80
2020,12,04,03,32,5.80
2020,12,04,03,33,5.80
2020,12,04,03,34,5.80
2020,12,04,03,35,5.80
2020,12,04,03,36,5.80
2020,12,04,03,37,5.80
2020,12,04,03,38,5.80
2020,12,04,03,39,5.80
2020,12,04,03,40,5.80
2020,12,04,03,41,5.80
2020,12,04,03,42,5.80
2020,12,04,03,43,5.80
2020,12,04,03,44,5.80
2020,12,04,03,45,5.80
2020,12,04,03,46,5.80
2020,12,04,03,47,5.80
2020,12,04,03,48,5.80
2020,12,04,03,49,5.80
2020,12,04,03,50,5.80
2020,12,04,03,51,5.80
2020,12,04,03,52,5.80
2020,12,04,03,53,5.80
2020,12,04,03,54,5.80
2020,12,04,03,55,5.90
2020,12,04,03,56,5.90
2020,12,04,03,57,5.90
2020,12,04,03,58,5.90
2020,12,04,03,59,5.80
2020,12,04,04,00,5.90
2020,12,04,04,01,5.90
2020,12,04,04,02,5.80
2020,12,04,04,03,5.80
2020,12,04,04,04,5.80
2020,12,04,04,05,5.80
2020,12,04,04,06,5.80
2020,12,04,04,07,5.80
2020,12,04,04,08,5.80
2020,12,04,04,09,5.80
2020,12,04,04,10,5.80
2020,12,04,04,11,5.80
2020,12,04,04,12,5.80
2020,12,04,04,13,5.80
2020,12,04,04,14,5.80
2020,12,04,04,15,5.80
2020,12,04,04,16,5.80
2020,12,04,04,17,5.80
2020,12,04,04,18,5.80
2020,12,04,04,19,5.70
2020,12,04,04,20,5.70
2020,12,04,04,21,5.70
2020,12,04,04,22,5.70
2020,12,04,04,23,5.70
2020,12,04,04,24,5.70
2020,12,04,04,25,5.70
2020,12,04,04,26,5.70
2020,12,04,04,27,5.70
2020,12,04,04,28,5.70
2020,12,04,04,29,5.70
2020,12,04,04,30,5.70
2020,12,04,04,31,5.70
2020,12,04,04,32,5.60
2020,12,04,04,33,5.60
2020,12,04,04,34,5.60
2020,12,04,04,35,5.60
2020,12,04,04,36,5.60
2020,12,04,04,37,5.60
2020,12,04,04,38,5.60
2020,12,04,04,39,5.60
2020,12,04,04,40,5.60
2020,12,04,04,41,5.60
2020,12,04,04,42,5.60
2020,12,04,04,43,5.60
2020,12,04,04,44,5.60
2020,12,04,04,45,5.60
2020,12,04,04,46,5.60
2020,12,04,04,47,5.60
2020,12,04,04,48,5.60
2020,12,04,04,49,5.60
2020,12,04,04,50,5.60
2020,12,04,04,51,5.60
2020,12,04,04,52,5.60
2020,12,04,04,53,5.60
2020,12,04,04,54,5.60
2020,12,04,04,55,5.60
2020,12,04,04,56,5.60
2020,12,04,04,57,5.60
2020,12,04,04,58,5.60
2020,12,04,04,59,5.60
2020,12,04,05,00,5.60
2020,12,04,05,01,5.60
2020,12,04,05,02,5.50
2020,12,04,05,03,5.50
2020,12,04,05,04,5.50
2020,12,04,05,05,5.40
2020,12,04,05,06,5.40
2020,12,04,05,07,5.40
2020,12,04,05,08,5.40
2020,12,04,05,09,5.40
2020,12,04,05,10,5.40
2020,12,04,05,11,5.40
2020,12,04,05,12,5.40
2020,12,04,05,13,5.30
2020,12,04,05,14,5.30
2020,12,04,05,15,5.30
2020,12,04,05,16,5.20
2020,12,04,05,17,5.20
2020,12,04,05,18,5.20
2020,12,04,05,19,5.20
2020,12,04,05,20,5.10
2020,12,04,05,21,5.10
2020,12,04,05,22,5.10
2020,12,04,05,23,5.10
2020,12,04,05,24,5.10
2020,12,04,05,25,5.10
2020,12,04,05,26,5.00
2020,12,04,05,27,5.00
2020,12,04,05,28,5.00
2020,12,04,05,29,5.00
2020,12,04,05,30,5.00
2020,12,04,05,31,4.90
2020,12,04,05,32,4.90
2020,12,04,05,33,4.90
2020,12,04,05,34,4.90
2020,12,04,05,35,4.80
2020,12,04,05,36,4.80
2020,12,04,05,37,4.80
2020,12,04,05,38,4.80
2020,12,04,05,39,4.80
2020,12,04,05,40,4.70
2020,12,04,05,41,4.70
2020,12,04,05,42,4.70
2020,12,04,05,43,4.60
2020,12,04,05,44,4.60
2020,12,04,05,45,4.60
2020,12,04,05,46,4.60
2020,12,04,05,47,4.50
2020,12,04,05,48,4.50
2020,12,04,05,49,4.40
2020,12,04,05,50,4.40
2020,12,04,05,51,4.40
2020,12,04,05,52,4.40
2020,12,04,05,53,4.30
2020,12,04,05,54,4.30
2020,12,04,05,55,4.30
2020,12,04,05,56,4.30
2020,12,04,05,57,4.20
2020,12,04,05,58,4.20
2020,12,04,05,59,4.20
2020,12,04,06,00,4.20
2020,12,04,06,01,4.20
2020,12,04,06,02,4.20
2020,12,04,06,03,4.20
2020,12,04,06,04,4.20
2020,12,04,06,05,4.20
2020,12,04,06,06,4.20
2020,12,04,06,07,4.20
2020,12,04,06,08,4.20
2020,12,04,06,09,4.20
2020,12,04,06,10,4.20
2020,12,04,06,11,4.10
2020,12,04,06,12,4.10
2020,12,04,06,13,4.10
2020,12,04,06,14,4.00
2020,12,04,06,15,4.00
2020,12,04,06,16,3.90
2020,12,04,06,17,3.90
2020,12,04,06,18,3.90
2020,12,04,06,19,3.80
2020,12,04,06,20,3.80
2020,12,04,06,21,3.80
2020,12,04,06,22,3.70
2020,12,04,06,23,3.70
2020,12,04,06,24,3.70
2020,12,04,06,25,3.70
2020,12,04,06,26,3.70
2020,12,04,06,27,3.60
2020,12,04,06,28,3.60
2020,12,04,06,29,3.60
2020,12,04,06,30,3.60
2020,12,04,06,31,3.60
2020,12,04,06,32,3.60
2020,12,04,06,33,3.70
2020,12,04,06,34,3.70
2020,12,04,06,35,3.70
2020,12,04,06,36,3.70
2020,12,04,06,37,3.70
2020,12,04,06,38,3.70
2020,12,04,06,39,3.70
2020,12,04,06,40,3.70
2020,12,04,06,41,3.60
2020,12,04,06,42,3.60
2020,12,04,06,43,3.60
2020,12,04,06,44,3.60
2020,12,04,06,45,3.60
2020,12,04,06,46,3.50
2020,12,04,06,47,3.50
2020,12,04,06,48,3.50
2020,12,04,06,49,3.40
2020,12,04,06,50,3.40
2020,12,04,06,51,3.40
2020,12,04,06,52,3.30
2020,12,04,06,53,3.30
2020,12,04,06,54,3.30
2020,12,04,06,55,3.30
2020,12,04,06,56,3.20
2020,12,04,06,57,3.20
2020,12,04,06,58,3.20
2020,12,04,06,59,3.10
2020,12,04,07,00,3.00
2020,12,04,07,01,3.00
2020,12,04,07,02,2.90
2020,12,04,07,03,2.90
2020,12,04,07,04,2.80
2020,12,04,07,05,2.80
2020,12,04,07,06,2.80
2020,12,04,07,07,2.70
2020,12,04,07,08,2.70
2020,12,04,07,09,2.70
2020,12,04,07,10,2.70
2020,12,04,07,11,2.70
2020,12,04,07,12,2.70
2020,12,04,07,13,2.70
2020,12,04,07,14,2.70
2020,12,04,07,15,2.70
2020,12,04,07,16,2.70
2020,12,04,07,17,2.70
2020,12,04,07,18,2.70
2020,12,04,07,19,2.70
2020,12,04,07,20,2.60
2020,12,04,07,21,2.60
2020,12,04,07,22,2.60
2020,12,04,07,23,2.60
2020,12,04,07,24,2.60
2020,12,04,07,25,2.50
2020,12,04,07,26,2.50
2020,12,04,07,27,2.50
2020,12,04,07,28,2.50
2020,12,04,07,29,2.50
2020,12,04,07,30,2.50
2020,12,04,07,31,2.50
2020,12,04,07,32,2.50
2020,12,04,07,33,2.50
2020,12,04,07,34,2.50
2020,12,04,07,35,2.50
2020,12,04,07,36,2.50
2020,12,04,07,37,2.50
2020,12,04,07,38,2.50
2020,12,04,07,39,2.50
2020,12,04,07,40,2.50
2020,12,04,07,41,2.50
2020,12,04,07,42,2.50
2020,12,04,07,43,2.50
2020,12,04,07,44,2.50
2020,12,04,07,45,2.50
2020,12,04,07,46,2.50
2020,12,04,07,47,2.50
2020,12,04,07,48,2.50
2020,12,04,07,49,2.50
2020,12,04,07,50,2.50
2020,12,04,07,51,2.40
2020,12,04,07,52,2.40
2020,12,04,07,53,2.40
2020,12,04,07,54,2.40
2020,12,04,07,55,2.40
2020,12,04,07,56,2.40
2020,12,04,07,57,2.40
2020,12,04,07,58,2.40
2020,12,04,07,59,2.40
2020,12,04,08,00,2.40
2020,12,04,08,01,2.40
2020,12,04,08,02,2.30
2020,12,04,08,03,2.30
2020,12,04,08,04,2.30
2020,12,04,08,05,2.30
2020,12,04,08,06,2.30
2020,12,04,08,07,2.30
2020,12,04,08,08,2.20
2020,12,04,08,09,2.20
2020,12,04,08,10,2.20
2020,12,04,08,11,2.20
2020,12,04,08,12,2.20
2020,12,04,08,13,2.20
2020,12,04,08,14,2.20
2020,12,04,08,15,2.30
2020,12,04,08,16,2.30
2020,12,04,08,17,2.30
2020,12,04,08,18,2.30
2020,12,04,08,19,2.30
2020,12,04,08,20,2.30
2020,12,04,08,21,2.30
2020,12,04,08,22,2.30
2020,12,04,08,23,2.30
2020,12,04,08,24,2.30
2020,12,04,08,25,2.30
2020,12,04,08,26,2.30
2020,12,04,08,27,2.20
2020,12,04,08,28,2.20
2020,12,04,08,29,2.20
2020,12,04,08,30,2.30
2020,12,04,08,31,2.30
2020,12,04,08,32,2.30
2020,12,04,08,33,2.30
2020,12,04,08,34,2.30
2020,12,04,08,35,2.40
2020,12,04,08,36,2.40
2020,12,04,08,37,2.40
2020,12,04,08,38,2.40
2020,12,04,08,39,2.40
2020,12,04,08,40,2.40
2020,12,04,08,41,2.40
2020,12,04,08,42,2.40
2020,12,04,08,43,2.40
2020,12,04,08,44,2.40
2020,12,04,08,45,2.40
2020,12,04,08,46,2.40
2020,12,04,08,47,2.40
2020,12,04,08,48,2.50
2020,12,04,08,49,2.50
2020,12,04,08,50,2.50
2020,12,04,08,51,2.50
2020,12,04,08,52,2.60
2020,12,04,08,53,2.60
2020,12,04,08,54,2.60
2020,12,04,08,55,2.60
2020,12,04,08,56,2.70
2020,12,04,08,57,2.70
2020,12,04,08,58,2.70
2020,12,04,08,59,2.70
2020,12,04,09,00,2.70
2020,12,04,09,01,2.80
2020,12,04,09,02,2.80
2020,12,04,09,03,2.80
2020,12,04,09,04,2.80
2020,12,04,09,05,2.90
2020,12,04,09,06,2.90
2020,12,04,09,07,3.00
2020,12,04,09,08,3.00
2020,12,04,09,09,3.10
2020,12,04,09,10,3.20
2020,12,04,09,11,3.20
2020,12,04,09,12,3.20
2020,12,04,09,13,3.30
2020,12,04,09,14,3.30
2020,12,04,09,15,3.30
2020,12,04,09,16,3.30
2020,12,04,09,17,3.30
2020,12,04,09,18,3.40
2020,12,04,09,19,3.40
2020,12,04,09,20,3.50
2020,12,04,09,21,3.50
2020,12,04,09,22,3.50
2020,12,04,09,23,3.60
2020,12,04,09,24,3.60
2020,12,04,09,25,3.60
2020,12,04,09,26,3.60
2020,12,04,09,27,3.60
2020,12,04,09,28,3.70
2020,12,04,09,29,3.70
2020,12,04,09,30,3.70
2020,12,04,09,31,3.80
2020,12,04,09,32,3.80
2020,12,04,09,33,3.90
2020,12,04,09,34,4.00
2020,12,04,09,35,4.10
2020,12,04,09,36,4.20
2020,12,04,09,37,4.20
2020,12,04,09,38,4.30
2020,12,04,09,39,4.40
2020,12,04,09,40,4.40
2020,12,04,09,41,4.50
2020,12,04,09,42,4.60
2020,12,04,09,43,4.60
2020,12,04,09,44,4.70
2020,12,04,09,45,4.70
2020,12,04,09,46,4.70
2020,12,04,09,47,4.80
2020,12,04,09,48,4.80
2020,12,04,09,49,4.90
2020,12,04,09,50,4.90
2020,12,04,09,51,5.00
2020,12,04,09,52,5.10
2020,12,04,09,53,5.10
2020,12,04,09,54,5.20
2020,12,04,09,55,5.20
2020,12,04,09,56,5.20
2020,12,04,09,57,5.30
2020,12,04,09,58,5.30
2020,12,04,09,59,5.30
2020,12,04,10,00,5.40
2020,12,04,10,01,5.40
2020,12,04,10,02,5.40
2020,12,04,10,03,5.40
2020,12,04,10,04,5.50
2020,12,04,10,05,5.60
2020,12,04,10,06,5.60
2020,12,04,10,07,5.70
2020,12,04,10,08,5.70
2020,12,04,10,09,5.70
2020,12,04,10,10,5.70
2020,12,04,10,11,5.80
2020,12,04,10,12,5.80
2020,12,04,10,13,5.80
2020,12,04,10,14,5.90
2020,12,04,10,15,6.00
2020,12,04,10,16,6.00
2020,12,04,10,17,6.10
2020,12,04,10,18,6.20
2020,12,04,10,19,6.20
2020,12,04,10,20,6.20
2020,12,04,10,21,6.30
2020,12,04,10,22,6.30
2020,12,04,10,23,6.40
2020,12,04,10,24,6.40
2020,12,04,10,25,6.40
2020,12,04,10,26,6.40
2020,12,04,10,27,6.50
2020,12,04,10,28,6.50
2020,12,04,10,29,6.60
2020,12,04,10,30,6.60
2020,12,04,10,31,6.60
2020,12,04,10,32,6.60
2020,12,04,10,33,6.70
2020,12,04,10,34,6.70
2020,12,04,10,35,6.70
2020,12,04,10,36,6.80
2020,12,04,10,37,6.80
2020,12,04,10,38,6.80
2020,12,04,10,39,6.90
2020,12,04,10,40,6.90
2020,12,04,10,41,6.90
2020,12,04,10,42,7.00
2020,12,04,10,43,7.10
2020,12,04,10,44,7.20
2020,12,04,10,45,7.20
2020,12,04,10,46,7.30
2020,12,04,10,47,7.40
2020,12,04,10,48,7.50
2020,12,04,10,49,7.60
2020,12,04,10,50,7.70
2020,12,04,10,51,7.80
2020,12,04,10,52,7.80
2020,12,04,10,53,7.90
2020,12,04,10,54,7.90
2020,12,04,10,55,8.00
2020,12,04,10,56,8.00
2020,12,04,10,57,8.10
2020,12,04,10,58,8.10
2020,12,04,10,59,8.20
2020,12,04,11,00,8.30
2020,12,04,11,01,8.30
2020,12,04,11,02,8.30
2020,12,04,11,03,8.40
2020,12,04,11,04,8.40
2020,12,04,11,05,8.50
2020,12,04,11,06,8.50
2020,12,04,11,07,8.60
2020,12,04,11,08,8.70
2020,12,04,11,09,8.80
2020,12,04,11,10,8.90
2020,12,04,11,11,9.00
2020,12,04,11,12,9.10
2020,12,04,11,13,9.20
2020,12,04,11,14,9.30
2020,12,04,11,15,9.40
2020,12,04,11,16,9.50
2020,12,04,11,17,9.50
2020,12,04,11,18,9.50
2020,12,04,11,19,9.50
2020,12,04,11,20,9.60
2020,12,04,11,21,9.60
2020,12,04,11,22,9.50
2020,12,04,11,23,9.50
2020,12,04,11,24,9.50
2020,12,04,11,25,9.50
2020,12,04,11,26,9.60
2020,12,04,11,27,9.60
2020,12,04,11,28,9.60
2020,12,04,11,29,9.70
2020,12,04,11,30,9.70
2020,12,04,11,31,9.80
2020,12,04,11,32,9.80
2020,12,04,11,33,9.80
2020,12,04,11,34,9.80
2020,12,04,11,35,9.90
2020,12,04,11,36,9.90
2020,12,04,11,37,10.00
2020,12,04,11,38,10.00
2020,12,04,11,39,10.10
2020,12,04,11,40,10.20
2020,12,04,11,41,10.30
2020,12,04,11,42,10.40
2020,12,04,11,43,10.60
2020,12,04,11,44,10.70
2020,12,04,11,45,10.70
2020,12,04,11,46,10.80
2020,12,04,11,47,10.80
2020,12,04,11,48,10.80
2020,12,04,11,49,10.80
2020,12,04,11,50,10.90
2020,12,04,11,51,10.90
2020,12,04,11,52,10.90
2020,12,04,11,53,10.90
2020,12,04,11,54,10.90
2020,12,04,11,55,11.00
2020,12,04,11,56,11.00
2020,12,04,11,57,11.00
2020,12,04,11,58,11.10
2020,12,04,11,59,11.10
2020,12,04,12,00,11.20
2020,12,04,12,01,11.20
2020,12,04,12,02,11.20
2020,12,04,12,03,11.30
2020,12,04,12,04,11.30
2020,12,04,12,05,11.30
2020,12,04,12,06,11.40
2020,12,04,12,07,11.40
2020,12,04,12,08,11.50
2020,12,04,12,09,11.50
2020,12,04,12,10,11.60
2020,12,04,12,11,11.60
2020,12,04,12,12,11.70
2020,12,04,12,13,11.80
2020,12,04,12,14,11.80
2020,12,04,12,15,11.90
2020,12,04,12,16,11.90
2020,12,04,12,17,11.90
2020,12,04,12,18,11.90
2020,12,04,12,19,11.90
2020,12,04,12,20,11.90
2020,12,04,12,21,11.90
2020,12,04,12,22,11.90
2020,12,04,12,23,11.90
2020,12,04,12,24,11.90
2020,12,04,12,25,11.90
2020,12,04,12,26,11.90
2020,12,04,12,27,11.90
2020,12,04,12,28,12.00
2020,12,04,12,29,12.00
2020,12,04,12,30,12.10
2020,12,04,12,31,12.10
2020,12,04,12,32,12.10
2020,12,04,12,33,12.20
2020,12,04,12,34,12.20
2020,12,04,12,35,12.20
2020,12,04,12,36,12.30
2020,12,04,12,37,12.30
2020,12,04,12,38,12.30
2020,12,04,12,39,12.30
2020,12,04,12,40,12.30
2020,12,04,12,41,12.30
2020,12,04,12,42,12.30
2020,12,04,12,43,12.40
2020,12,04,12,44,12.40
2020,12,04,12,45,12.40
2020,12,04,12,46,12.40
2020,12,04,12,47,12.40
2020,12,04,12,48,12.40
2020,12,04,12,49,12.40
2020,12,04,12,50,12.50
2020,12,04,12,51,12.50
2020,12,04,12,52,12.60
2020,12,04,12,53,12.60
2020,12,04,12,54,12.70
2020,12,04,12,55,12.70
2020,12,04,12,56,12.70
2020,12,04,12,57,12.70
2020,12,04,12,58,12.80
2020,12,04,12,59,12.80
2020,12,04,13,00,12.80
2020,12,04,13,01,12.80
2020,12,04,13,02,12.90
2020,12,04,13,03,12.90
2020,12,04,13,04,12.90
2020,12,04,13,05,13.00
2020,12,04,13,06,13.10
2020,12,04,13,07,13.10
2020,12,04,13,08,13.10
2020,12,04,13,09,13.10
2020,12,04,13,10,13.10
2020,12,04,13,11,13.20
2020,12,04,13,12,13.20
2020,12,04,13,13,13.10
2020,12,04,13,14,13.10
2020,12,04,13,15,13.10
2020,12,04,13,16,13.00
2020,12,04,13,17,13.00
2020,12,04,13,18,13.00
2020,12,04,13,19,13.00
2020,12,04,13,20,13.10
2020,12,04,13,21,13.00
2020,12,04,13,22,13.00
2020,12,04,13,23,13.00
2020,12,04,13,24,13.00
2020,12,04,13,25,13.00
2020,12,04,13,26,13.00
2020,12,04,13,27,13.00
2020,12,04,13,28,13.00
2020,12,04,13,29,12.90
2020,12,04,13,30,12.90
2020,12,04,13,31,12.90
2020,12,04,13,32,13.00
2020,12,04,13,33,13.00
2020,12,04,13,34,13.00
2020,12,04,13,35,13.10
2020,12,04,13,36,13.10
2020,12,04,13,37,13.10
2020,12,04,13,38,13.20
2020,12,04,13,39,13.20
2020,12,04,13,40,13.20
2020,12,04,13,41,13.20
2020,12,04,13,42,13.10
2020,12,04,13,43,13.10
2020,12,04,13,44,13.10
2020,12,04,13,45,13.10
2020,12,04,13,46,13.10
2020,12,04,13,47,13.00
2020,12,04,13,48,13.00
2020,12,04,13,49,13.00
2020,12,04,13,50,13.00
2020,12,04,13,51,13.00
2020,12,04,13,52,13.00
2020,12,04,13,53,13.00
2020,12,04,13,54,13.00
2020,12,04,13,55,13.00
2020,12,04,13,56,13.00
2020,12,04,13,57,12.90
2020,12,04,13,58,12.90
2020,12,04,13,59,12.90
2020,12,04,14,00,12.80
2020,12,04,14,01,12.80
2020,12,04,14,02,12.80
2020,12,04,14,03,12.80
2020,12,04,14,04,12.80
2020,12,04,14,05,12.70
2020,12,04,14,06,12.70
2020,12,04,14,07,12.70
2020,12,04,14,08,12.70
2020,12,04,14,09,12.60
2020,12,04,14,10,12.60
2020,12,04,14,11,12.60
2020,12,04,14,12,12.60
2020,12,04,14,13,12.60
2020,12,04,14,14,12.60
2020,12,04,14,15,12.60
2020,12,04,14,16,12.60
2020,12,04,14,17,12.60
2020,12,04,14,18,12.60
2020,12,04,14,19,12.60
2020,12,04,14,20,12.60
2020,12,04,14,21,12.60
2020,12,04,14,22,12.50
2020,12,04,14,23,12.50
2020,12,04,14,24,12.50
2020,12,04,14,25,12.40
2020,12,04,14,26,12.40
2020,12,04,14,27,12.40
2020,12,04,14,28,12.40
2020,12,04,14,29,12.40
2020,12,04,14,30,12.40
2020,12,04,14,31,12.40
2020,12,04,14,32,12.30
2020,12,04,14,33,12.40
2020,12,04,14,34,12.40
2020,12,04,14,35,12.40
2020,12,04,14,36,12.40
2020,12,04,14,37,12.40
2020,12,04,14,38,12.40
2020,12,04,14,39,12.40
2020,12,04,14,40,12.40
2020,12,04,14,41,12.40
2020,12,04,14,42,12.40
2020,12,04,14,43,12.40
2020,12,04,14,44,12.50
2020,12,04,14,45,12.50
2020,12,04,14,46,12.50
2020,12,04,14,47,12.60
2020,12,04,14,48,12.60
2020,12,04,14,49,12.60
2020,12,04,14,50,12.70
2020,12,04,14,51,12.70
2020,12,04,14,52,12.60
2020,12,04,14,53,12.60
2020,12,04,14,54,12.60
2020,12,04,14,55,12.60
2020,12,04,14,56,12.60
2020,12,04,14,57,12.60
2020,12,04,14,58,12.60
2020,12,04,14,59,12.50
2020,12,04,15,00,12.50
2020,12,04,15,01,12.50
2020,12,04,15,02,12.50
2020,12,04,15,03,12.40
2020,12,04,15,04,12.40
2020,12,04,15,05,12.40
2020,12,04,15,06,12.30
2020,12,04,15,07,12.30
2020,12,04,15,08,12.30
2020,12,04,15,09,12.30
2020,12,04,15,10,12.20
2020,12,04,15,11,12.20
2020,12,04,15,12,12.20
2020,12,04,15,13,12.20
2020,12,04,15,14,12.20
2020,12,04,15,15,12.10
2020,12,04,15,16,12.10
2020,12,04,15,17,12.10
2020,12,04,15,18,12.00
2020,12,04,15,19,12.00
2020,12,04,15,20,12.00
2020,12,04,15,21,12.00
2020,12,04,15,22,11.90
2020,12,04,15,23,11.90
2020,12,04,15,24,11.90
2020,12,04,15,25,11.80
2020,12,04,15,26,11.80
2020,12,04,15,27,11.80
2020,12,04,15,28,11.80
2020,12,04,15,29,11.80
2020,12,04,15,30,11.70
2020,12,04,15,31,11.70
2020,12,04,15,32,11.70
2020,12,04,15,33,11.70
2020,12,04,15,34,11.70
2020,12,04,15,35,11.70
2020,12,04,15,36,11.60
2020,12,04,15,37,11.60
2020,12,04,15,38,11.60
2020,12,04,15,39,11.60
2020,12,04,15,40,11.60
2020,12,04,15,41,11.60
2020,12,04,15,42,11.60
2020,12,04,15,43,11.50
2020,12,04,15,44,11.50
2020,12,04,15,45,11.40
2020,12,04,15,46,11.30
2020,12,04,15,47,11.30
2020,12,04,15,48,11.30
2020,12,04,15,49,11.20
2020,12,04,15,50,11.20
2020,12,04,15,51,11.10
2020,12,04,15,52,11.10
2020,12,04,15,53,11.10
2020,12,04,15,54,11.00
2020,12,04,15,55,11.00
2020,12,04,15,56,10.90
2020,12,04,15,57,10.90
2020,12,04,15,58,10.80
2020,12,04,15,59,10.70
2020,12,04,16,00,10.70
2020,12,04,16,01,10.60
2020,12,04,16,02,10.50
2020,12,04,16,03,10.40
2020,12,04,16,04,10.40
2020,12,04,16,05,10.30
2020,12,04,16,06,10.30
2020,12,04,16,07,10.20
2020,12,04,16,08,10.20
2020,12,04,16,09,10.10
2020,12,04,16,10,10.10
2020,12,04,16,11,10.00
2020,12,04,16,12,9.90
2020,12,04,16,13,9.90
2020,12,04,16,14,9.80
2020,12,04,16,15,9.80
2020,12,04,16,16,9.70
2020,12,04,16,17,9.70
2020,12,04,16,18,9.60
2020,12,04,16,19,9.60
2020,12,04,16,20,9.50
2020,12,04,16,21,9.40
2020,12,04,16,22,9.40
2020,12,04,16,23,9.30
2020,12,04,16,24,9.30
2020,12,04,16,25,9.20
2020,12,04,16,26,9.20
2020,12,04,16,27,9.20
2020,12,04,16,28,9.10
2020,12,04,16,29,9.10
2020,12,04,16,30,9.10
2020,12,04,16,31,9.00
2020,12,04,16,32,9.00
2020,12,04,16,33,8.90
2020,12,04,16,34,8.90
2020,12,04,16,35,8.90
2020,12,04,16,36,8.80
2020,12,04,16,37,8.80
2020,12,04,16,38,8.80
2020,12,04,16,39,8.80
2020,12,04,16,40,8.70
2020,12,04,16,41,8.70
2020,12,04,16,42,8.70
2020,12,04,16,43,8.60
2020,12,04,16,44,8.60
2020,12,04,16,45,8.50
2020,12,04,16,46,8.50
2020,12,04,16,47,8.40
2020,12,04,16,48,8.40
2020,12,04,16,49,8.30
2020,12,04,16,50,8.30
2020,12,04,16,51,8.20
2020,12,04,16,52,8.20
2020,12,04,16,53,8.10
2020,12,04,16,54,8.00
2020,12,04,16,55,8.00
2020,12,04,16,56,7.90
2020,12,04,16,57,7.80
2020,12,04,16,58,7.80
2020,12,04,16,59,7.70
2020,12,04,17,00,7.70
2020,12,04,17,01,7.60
2020,12,04,17,02,7.60
2020,12,04,17,03,7.50
2020,12,04,17,04,7.50
2020,12,04,17,05,7.40
2020,12,04,17,06,7.40
2020,12,04,17,07,7.40
2020,12,04,17,08,7.30
2020,12,04,17,09,7.30
2020,12,04,17,10,7.30
2020,12,04,17,11,7.30
2020,12,04,17,12,7.20
2020,12,04,17,13,7.20
2020,12,04,17,14,7.20
2020,12,04,17,15,7.20
2020,12,04,17,16,7.20
2020,12,04,17,17,7.10
2020,12,04,17,18,7.00
2020,12,04,17,19,7.00
2020,12,04,17,20,6.90
2020,12,04,17,21,6.90
2020,12,04,17,22,6.80
2020,12,04,17,23,6.80
2020,12,04,17,24,6.70
2020,12,04,17,25,6.70
2020,12,04,17,26,6.60
2020,12,04,17,27,6.60
2020,12,04,17,28,6.60
2020,12,04,17,29,6.60
2020,12,04,17,30,6.60
2020,12,04,17,31,6.50
2020,12,04,17,32,6.40
2020,12,04,17,33,6.40
2020,12,04,17,34,6.40
2020,12,04,17,35,6.40
2020,12,04,17,36,6.30
2020,12,04,17,37,6.30
2020,12,04,17,38,6.20
2020,12,04,17,39,6.20
2020,12,04,17,40,6.20
2020,12,04,17,41,6.20
2020,12,04,17,42,6.10
2020,12,04,17,43,6.10
2020,12,04,17,44,6.10
2020,12,04,17,45,6.10
2020,12,04,17,46,6.10
2020,12,04,17,47,6.00
2020,12,04,17,48,6.00
2020,12,04,17,49,6.00
2020,12,04,17,50,5.90
2020,12,04,17,51,5.90
2020,12,04,17,52,5.90
2020,12,04,17,53,5.80
2020,12,04,17,54,5.80